Terminal Aerodrome Forecast
Issued by NWS

Home | Current Version | Previous Version | Text Only | Print | Product List | Glossary On
Versions: 1 2 3 4 5 6 7 8 9 10 11 12 13
000
FTUS43 KFGF 201100
TAFTVF
TAF
KTVF 201121Z 2012/2112 20007KT 2SM BR OVC004
     FM201800 18008KT P6SM OVC005
      AMD LTD TO CLD VIS AND WIND=

USA.gov is the U.S. government's official web portal to all federal, state and local government web resources and services.